When you browse on this site, cookies collect data to enhance your experience and personalize the content and advertising you see.
Visit our Privacy Policy to learn more. By continuing to use the site, you agree to this use of cookies and data.
  • In Hungary
  • List of Countries
  • For 7 days
  • Water Temperature
  • Satellite Maps
  • Weather Map
  • News
  • Weather Widgets
  • user-avatar
    Login

    Hourly Weather Buczyna

    Today, 26 May, Sunday

    Time Temperature Precipitation Wind Pressure Humidity
    00:00 +12°C° 0 mm 1 mps 735 mmHg 88%
    01:00 +12°C° 0 mm 1 mps 735 mmHg 89%
    02:00 +12°C° 0 mm 1 mps 736 mmHg 89%
    03:00 +11°C° 0 mm 1 mps 736 mmHg 89%
    04:00 +11°C° 0 mm 1 mps 736 mmHg 89%
    05:00 +13°C° 0 mm 1 mps 736 mmHg 84%
    06:00 +15°C° 0 mm 1 mps 736 mmHg 79%
    07:00 +18°C° 0 mm 1 mps 736 mmHg 73%
    08:00 +19°C° 0 mm 1 mps 736 mmHg 70%
    09:00 +20°C° 0 mm 2 mps 736 mmHg 66%
    10:00 +21°C° 0 mm 2 mps 736 mmHg 62%
    11:00 +21°C° 0.2 mm 2 mps 736 mmHg 62%
    12:00 +22°C° 0.2 mm 3 mps 735 mmHg 63%
    13:00 +22°C° 0.2 mm 3 mps 735 mmHg 63%
    14:00 +23°C° 0.5 mm 2 mps 735 mmHg 65%
    15:00 +23°C° 0.5 mm 2 mps 735 mmHg 67%
    16:00 +23°C° 0.5 mm 2 mps 735 mmHg 69%
    17:00 +20°C° 0.4 mm 2 mps 735 mmHg 74%
    18:00 +19°C° 0.4 mm 2 mps 735 mmHg 78%
    19:00 +18°C° 0.4 mm 2 mps 735 mmHg 83%
    20:00 +17°C° 0.1 mm 2 mps 735 mmHg 85%
    21:00 +16°C° 0.1 mm 2 mps 735 mmHg 87%
    22:00 +15°C° 0.1 mm 2 mps 735 mmHg 90%
    23:00 +14°C° 0 mm 2 mps 735 mmHg 90%

    Tomorrow, 27 May, Monday

    Time Temperature Precipitation Wind Pressure Humidity
    00:00 +14°C° 0 mm 2 mps 735 mmHg 90%
    01:00 +14°C° 0 mm 2 mps 735 mmHg 91%
    02:00 +14°C° 0 mm 2 mps 734 mmHg 90%
    03:00 +13°C° 0 mm 2 mps 734 mmHg 90%
    04:00 +13°C° 0 mm 2 mps 734 mmHg 90%
    05:00 +15°C° 0 mm 2 mps 734 mmHg 88%
    06:00 +16°C° 0 mm 2 mps 734 mmHg 85%
    07:00 +18°C° 0 mm 2 mps 734 mmHg 83%
    08:00 +19°C° 0 mm 2 mps 734 mmHg 78%
    09:00 +21°C° 0 mm 2 mps 734 mmHg 72%
    10:00 +23°C° 0 mm 2 mps 734 mmHg 67%
    11:00 +24°C° 0 mm 2 mps 734 mmHg 62%
    12:00 +25°C° 0 mm 2 mps 734 mmHg 57%
    13:00 +26°C° 0 mm 2 mps 734 mmHg 52%
    14:00 +25°C° 0.1 mm 2 mps 733 mmHg 57%
    15:00 +25°C° 0.1 mm 2 mps 733 mmHg 62%
    16:00 +24°C° 0.1 mm 2 mps 733 mmHg 67%
    17:00 +23°C° 0.2 mm 1 mps 733 mmHg 72%
    18:00 +22°C° 0.2 mm 1 mps 732 mmHg 76%
    19:00 +19°C° 0.2 mm 0 mps 732 mmHg 81%
    20:00 +20°C° 0.7 mm 1 mps 732 mmHg 84%
    21:00 +19°C° 0.7 mm 1 mps 732 mmHg 88%
    22:00 +19°C° 0.7 mm 1 mps 732 mmHg 92%
    23:00 +18°C° 0.2 mm 1 mps 732 mmHg 93%

    Day after tomorrow, 28 May, Tuesday

    Time Temperature Precipitation Wind Pressure Humidity
    00:00 +18°C° 0.2 mm 1 mps 731 mmHg 94%
    01:00 +18°C° 0.2 mm 1 mps 731 mmHg 95%
    02:00 +16°C° 0.1 mm 1 mps 731 mmHg 95%
    03:00 +16°C° 0.1 mm 1 mps 730 mmHg 94%
    04:00 +15°C° 0.1 mm 2 mps 730 mmHg 94%
    05:00 +17°C° 0 mm 2 mps 730 mmHg 91%
    06:00 +18°C° 0 mm 2 mps 730 mmHg 87%
    07:00 +20°C° 0 mm 2 mps 730 mmHg 84%
    08:00 +21°C° 0.1 mm 2 mps 729 mmHg 77%
    09:00 +24°C° 0.1 mm 3 mps 729 mmHg 70%
    10:00 +25°C° 0.1 mm 3 mps 729 mmHg 63%
    11:00 +25°C° 0.7 mm 3 mps 729 mmHg 64%
    12:00 +25°C° 0.7 mm 2 mps 728 mmHg 66%
    13:00 +25°C° 0.7 mm 2 mps 728 mmHg 67%
    14:00 +24°C° 2.5 mm 2 mps 728 mmHg 73%
    15:00 +23°C° 2.5 mm 2 mps 727 mmHg 78%
    16:00 +21°C° 2.5 mm 2 mps 727 mmHg 84%
    17:00 +20°C° 0.7 mm 2 mps 727 mmHg 85%
    18:00 +20°C° 0.7 mm 1 mps 727 mmHg 86%
    19:00 +19°C° 0.7 mm 1 mps 727 mmHg 87%
    20:00 +19°C° 0.5 mm 1 mps 727 mmHg 88%
    21:00 +17°C° 0.5 mm 2 mps 727 mmHg 90%
    22:00 +16°C° 0.5 mm 2 mps 728 mmHg 91%
    23:00 +16°C° 0 mm 2 mps 728 mmHg 93%

    29 May, Wednesday

    Time Temperature Precipitation Wind Pressure Humidity
    00:00 +15°C° 0 mm 2 mps 728 mmHg 95%
    01:00 +15°C° 0 mm 2 mps 728 mmHg 97%
    02:00 +15°C° 0.6 mm 2 mps 729 mmHg 96%
    03:00 +14°C° 0.6 mm 2 mps 729 mmHg 96%
    04:00 +14°C° 0.6 mm 2 mps 729 mmHg 96%
    05:00 +14°C° 0.5 mm 2 mps 730 mmHg 95%
    06:00 +14°C° 0.5 mm 2 mps 730 mmHg 94%
    07:00 +14°C° 0.5 mm 2 mps 730 mmHg 93%
    08:00 +14°C° 0.1 mm 2 mps 731 mmHg 92%
    09:00 +15°C° 0.1 mm 2 mps 731 mmHg 90%
    10:00 +15°C° 0.1 mm 2 mps 731 mmHg 88%
    11:00 +15°C° 0.6 mm 2 mps 732 mmHg 89%
    12:00 +16°C° 0.6 mm 2 mps 732 mmHg 90%
    13:00 +16°C° 0.6 mm 2 mps 732 mmHg 91%
    14:00 +15°C° 1.1 mm 2 mps 732 mmHg 92%
    15:00 +14°C° 1.1 mm 3 mps 732 mmHg 94%
    16:00 +13°C° 1.1 mm 3 mps 732 mmHg 95%
    17:00 +13°C° 0.5 mm 3 mps 733 mmHg 95%
    18:00 +13°C° 0.5 mm 3 mps 733 mmHg 96%
    19:00 +12°C° 0.5 mm 3 mps 733 mmHg 96%
    20:00 +13°C° 0.2 mm 2 mps 733 mmHg 96%
    21:00 +13°C° 0.2 mm 2 mps 734 mmHg 97%
    22:00 +13°C° 0.2 mm 2 mps 734 mmHg 97%
    23:00 +13°C° 0.2 mm 2 mps 734 mmHg 97%

    30 May, Thursday

    Time Temperature Precipitation Wind Pressure Humidity
    00:00 +12°C° 0.2 mm 2 mps 734 mmHg 97%
    01:00 +11°C° 0.2 mm 3 mps 735 mmHg 97%
    02:00 +11°C° 0.3 mm 3 mps 735 mmHg 96%
    03:00 +10°C° 0.3 mm 3 mps 735 mmHg 96%
    04:00 +9°C° 0.3 mm 3 mps 735 mmHg 95%
    05:00 +9°C° 0.4 mm 3 mps 736 mmHg 95%
    06:00 +8°C° 0.4 mm 3 mps 736 mmHg 95%
    07:00 +8°C° 0.4 mm 3 mps 737 mmHg 94%
    08:00 +8°C° 0.3 mm 3 mps 737 mmHg 94%
    09:00 +8°C° 0.3 mm 3 mps 738 mmHg 94%
    10:00 +8°C° 0.3 mm 3 mps 738 mmHg 93%
    11:00 +8°C° 0.2 mm 3 mps 738 mmHg 93%
    12:00 +8°C° 0.2 mm 3 mps 739 mmHg 93%
    13:00 +9°C° 0.2 mm 3 mps 739 mmHg 92%
    14:00 +9°C° 0.1 mm 3 mps 739 mmHg 92%
    15:00 +9°C° 0.1 mm 2 mps 740 mmHg 91%
    16:00 +10°C° 0.1 mm 2 mps 740 mmHg 91%
    17:00 +10°C° 0 mm 2 mps 740 mmHg 91%
    18:00 +10°C° 0 mm 2 mps 740 mmHg 92%
    19:00 +10°C° 0 mm 2 mps 740 mmHg 93%
    20:00 +9°C° 0 mm 2 mps 741 mmHg 94%
    21:00 +9°C° 0 mm 2 mps 741 mmHg 94%
    22:00 +8°C° 0 mm 2 mps 741 mmHg 95%
    23:00 +8°C° 0 mm 2 mps 742 mmHg 95%

    31 May, Friday

    Time Temperature Precipitation Wind Pressure Humidity
    00:00 +8°C° 0 mm 2 mps 742 mmHg 95%
    01:00 +8°C° 0 mm 2 mps 742 mmHg 95%
    02:00 +7°C° 0 mm 2 mps 742 mmHg 95%
    03:00 +8°C° 0 mm 1 mps 742 mmHg 94%
    04:00 +7°C° 0 mm 1 mps 742 mmHg 94%
    05:00 +9°C° 0 mm 1 mps 743 mmHg 90%
    06:00 +11°C° 0 mm 1 mps 743 mmHg 86%
    07:00 +12°C° 0 mm 1 mps 743 mmHg 82%
    08:00 +14°C° 0 mm 1 mps 743 mmHg 73%
    09:00 +15°C° 0 mm 1 mps 743 mmHg 64%
    10:00 +17°C° 0 mm 2 mps 743 mmHg 56%
    11:00 +17°C° 0 mm 2 mps 743 mmHg 54%
    12:00 +18°C° 0 mm 2 mps 743 mmHg 53%
    13:00 +19°C° 0 mm 2 mps 743 mmHg 52%
    14:00 +19°C° 0 mm 2 mps 743 mmHg 55%
    15:00 +19°C° 0 mm 2 mps 743 mmHg 58%
    16:00 +19°C° 0 mm 2 mps 743 mmHg 60%
    17:00 +17°C° 0 mm 2 mps 743 mmHg 67%
    18:00 +16°C° 0 mm 1 mps 744 mmHg 74%
    19:00 +14°C° 0 mm 1 mps 744 mmHg 80%
    20:00 +13°C° 0 mm 1 mps 744 mmHg 83%
    21:00 +12°C° 0 mm 1 mps 744 mmHg 86%
    22:00 +11°C° 0 mm 1 mps 744 mmHg 88%
    23:00 +11°C° 0 mm 1 mps 744 mmHg 89%
    Show more